AirNav   Air Wisconsin pilot careers
 
 607 users online  

KUWL New Castle-Henry County Municipal Airport
New Castle, Indiana, USA

GOING TO NEW CASTLE?


FAA INFORMATION EFFECTIVE 13 SEPTEMBER 2018

Location

FAA Identifier: UWL
Lat/Long: 39-52-36.2000N / 085-19-31.0000W
39-52.603333N / 085-19.516667W
39.8767222 / -85.3252778
(estimated)
Elevation: 1090 ft. / 332.2 m (surveyed)
Variation: 06W (2020)
From city: 4 miles SE of NEW CASTLE, IN
Time zone: UTC -4 (UTC -5 during Standard Time)
Zip code: 47362

Airport Operations

Airport use: Open to the public
Activation date: 09/1971
Control tower: no
ARTCC: INDIANAPOLIS CENTER
FSS: TERRE HAUTE FLIGHT SERVICE STATION
NOTAMs facility: HUF (NOTAM-D service available)
Attendance: 0800-1800
FOR FUEL WHEN ARPT UNATNDD PHONE 765-332-2969.
Wind indicator: lighted
Segmented circle: no
Lights: MIRL RY 10/28 PRESET ON LOW INTST; TO INCR INTST & ACTVT PAPI RYS 10 & 28; REIL RYS 10 & 28 - CTAF.
Beacon: white-green (lighted land airport)
Operates sunset to sunrise.

Airport Communications

CTAF/UNICOM: 123.05
INDIANAPOLIS APPROACH: 135.45
INDIANAPOLIS DEPARTURE: 135.45
WX AWOS-3 at CEV (14 nm SE): 118.325 (765-827-6649)
WX AWOS-3 at AID (19 nm NW): 128.55 (765-378-1510)

Nearby radio navigation aids

VOR radial/distance  VOR name  Freq  Var
MIEr175/21.9MUNCIE VOR/DME114.4003W
RIDr291/23.6RICHMOND VORTAC110.6003W
SHBr057/27.3SHELBYVILLE VOR/DME112.0001E

 
NDB name  Hdg/Dist  Freq  Var  ID
NEW CASTLEat field38506WUWL ..- .-- .-..
PNTHR308/10.822704WSQ ... --.-
VIDEO147/14.439403WAI .- ..
BATESVILLE359/32.025405WHLB .... .-.. -...
METROPOLITAN099/33.633803WUMP ..- -- .--.

Airport Services

Fuel available: 100LL JET-A
Parking: hangars and tiedowns
Airframe service: MINOR
Powerplant service: MINOR
Bottled oxygen: NONE

Runway Information

Runway 10/28

Dimensions: 4201 x 75 ft. / 1280 x 23 m
Surface: asphalt, in good condition
Runway edge lights: medium intensity
RUNWAY 10  RUNWAY 28
Latitude: 39-52.606373N39-52.601488N
Longitude: 085-19.966180W085-19.068103W
Elevation: 1080.0 ft.1090.0 ft.
Traffic pattern: leftleft
Runway heading: 096 magnetic, 090 true276 magnetic, 270 true
Markings: nonprecision, in good conditionnonprecision, in good condition
Visual slope indicator: 2-light PAPI on left (3.00 degrees glide path)2-light PAPI on left (3.00 degrees glide path)
Runway end identifier lights: yesyes
Touchdown point: yes, no lightsyes, no lights

Airport Ownership and Management from official FAA records

Ownership: Publicly-owned
Owner: NEW CASTLE/HENRY COUNTY
2912 E. CO. RD. 400 S.
NEW CASTLE, IN 47362
Phone 765-529-7903
AIRPORT OWNED BY MR. MARLATT, RUNWAY OWNED BY CITY OF NEW CASTLE, HENRY CO.
Manager: JOHN MARLATT
2912 E. CO. RD. 400 S.
NEW CASTLE, IN 47362
Phone 765-529-7903
OR 765-529-7909.

Airport Operational Statistics

Aircraft based on the field: 21
Single engine airplanes: 18
Multi engine airplanes: 2
Ultralights: 1
    
Aircraft operations: avg 131/week *
80% local general aviation
16% transient general aviation
4% air taxi
* for 12-month period ending 31 December 2015

Additional Remarks

SEASONAL CROPS 112'L/R OF RWY CL ENTIRE LENGTH WITHIN PRIM SFC.
FOR CD CTC IND APCH AT 317-227-5743.

Instrument Procedures

NOTE: All procedures below are presented as PDF files. If you need a reader for these files, you should download the free Adobe Reader.

NOT FOR NAVIGATION. Please procure official charts for flight.
FAA instrument procedures published for use from 13 September 2018 at 0901Z to 11 October 2018 at 0900Z.

 
IAPs - Instrument Approach Procedures
RNAV (GPS) RWY 10 **CHANGED**   download (191KB)
RNAV (GPS) RWY 28 **CHANGED**   download (187KB)
NDB RWY 10 **CHANGED**   download (170KB)
NOTE: Special Take-Off Minimums/Departure Procedures apply   download (317KB)

Other nearby airports with instrument procedures:

KCEV - Mettel Field Airport (14 nm SE)
KAID - Anderson Municipal Airport-Darlington Field (19 nm NW)
KMIE - Delaware County Regional Airport (22 nm N)
KRID - Richmond Municipal Airport (23 nm E)
I22 - Randolph County Airport (25 nm NE)
 
Loc | Ops | Rwys | IFR | FBO | Links
Com | Nav | Svcs | Stats | Notes


 
Area around KUWL (New Castle-Henry County Municipal Airport)
 
Road maps at: MapQuest Bing Google
 
Aerial photo
WARNING: Photo may not be current or correct
Aerial photo of KUWL (New Castle-Henry County Municipal Airport)
Photo by Phil Brooks
Photo taken 30-Apr-2018
looking west.

Do you have a better or more recent aerial photo of New Castle-Henry County Municipal Airport that you would like to share? If so, please send us your photo.

 
Sectional chart

 
Airport distance calculator
Flying to New Castle-Henry County Municipal Airport? Find the distance to fly.

From to KUWL

Sunrise and sunset
Times for 25-Sep-2018
 Local
(UTC-4)
 Zulu
(UTC)
Morning civil twilight07:0611:06
Sunrise07:3311:33
Sunset19:3323:33
Evening civil twilight20:0000:00

Current date and time
Zulu (UTC)  25-Sep-2018 04:41:52
Local (UTC-4)  25-Sep-2018 00:41:52
 
METAR
KAID 
20nm NW 
250415Z AUTO 20006KT 5SM -RA BKN005 OVC010 21/21 A3001 RMK AO2 P0004 T02090206
KMIE 
22nm N 
250408Z AUTO 20006KT 2 1/2SM +RA BR SCT021 OVC029 22/21 A3000 RMK AO2 P0003 T02220206
KRID 
23nm E 
250415Z AUTO 19009G15KT 5SM BR OVC004 19/19 A3006 RMK AO2
KMQJ 
26nm W 
250416Z AUTO 20007KT 7SM BKN007 OVC025 21/21 A3001 RMK AO1
KGEZ 
28nm SW 
250353Z AUTO 18009KT 10SM BKN008 OVC013 22/21 A3001 RMK AO2 CIG 006V010 SLP156 T02220206
KHLB 
32nm S 
250415Z AUTO 18007G12KT 10SM OVC007 21/21 A3004 RMK A01
KPLD 
38nm NE 
250415Z AUTO 00000KT 3SM -RA OVC005 A3000 RMK AO2 P0002
KHFY 
38nm SW 
250415Z AUTO 20004KT 7SM SCT011 BKN016 OVC021 21/21 A3001 RMK AO2 T02100205
TAF
KIND 
45nm W 
250220Z 2502/2606 16006KT P6SM VCSH OVC007 FM250900 19006KT P6SM VCSH OVC008 FM251300 19008KT 5SM -SHRA OVC010 FM251500 20008KT 3SM -SHRA VCTS OVC008CB FM252000 19010KT P6SM BKN010 FM260000 20009KT 6SM -SHRA BKN040
NOTAMs
Click for the latest NOTAMs
NOTAMs are issued by the DoD/FAA and will open in a separate window not controlled by AirNav.

 

 
 

FBO, Fuel Providers, and Aircraft Ground Support

  
 Business Name 
 
 Contact 
 
 Services / Description 
 
Fuel Prices
 
Comments
  
Sky Castle Aviation 765-529-7903
no information available

If you are affiliated with Sky Castle Aviation and would like to show here your services, contact info, web link, logo, and more, click here
100LL Jet A
FS $5.05 $3.85 
 Updated 11-Sep-2018
 
   write
FS=Full service
Update Fuel Prices
 

Would you like to see your business listed on this page?

 If your business provides an interesting product or service to pilots, flight crews, aircraft, or users of the New Castle-Henry County Municipal Airport, you should consider listing it here.  To start the listing process, click on the button below
 
Add a business
 

Other Pages about New Castle-Henry County Municipal Airport

Update a link
 
Copyright © AirNav, LLC. All rights reserved. Privacy Policy  Contact